Temperature
10 10 10 10 10 10 11 11 11 11 11 11 11 11 11 11 11 11 11 11 11 11 11 11 11 11 11 11 11 11 11 11 11 11 11 11 11 10 10 10 10 10 10
9 10 10 10 10 10 10 10 10 10 10 10 10 10 10 10 10 11 11 11 11 11 11 11 11 11 10 10 10 10 10 10 10 10 10 10 10 10 10 10 10 10 10
9 9 9 10 10 10 10 10 10 10 10 9 10 10 10 10 10 10 10 10 10 10 10 10 10 10 10 10 10 10 10 10 10 10 10 10 10 10 10 10 10 10 10
8 9 9 9 9 9 9 9 9 9 9 9 9 9 9 9 10 10 10 10 10 10 10 10 10 10 10 10 9 9 9 9 9 9 9 9 9 9 9 9 9 9 9
8 8 8 9 9 9 9 9 9 9 9 8 8 9 9 9 9 9 9 9 9 9 9 9 9 9 9 9 9 9 9 9 9 9 9 9 9 9 9 9 9 9 9
7 7 8 8 8 8 8 8 8 8 8 8 8 8 8 8 8 8 9 9 9 9 9 9 9 9 9 9 9 9 9 9 8 8 8 8 8 8 8 8 8 8 8
7 7 7 7 7 8 8 8 8 8 7 7 7 7 7 7 8 8 8 8 8 8 8 8 8 8 8 8 8 8 8 8 8 8 8 8 8 8 8 8 8 8 8
6 6 6 7 7 7 7 7 7 7 7 7 7 6 6 6 7 7 7 7 7 8 8 8 8 8 8 8 8 8 8 8 8 8 7 7 7 7 7 7 7 8 8
6 6 6 6 6 6 6 6 7 7 6 6 6 6 6 6 6 6 6 7 7 7 7 7 7 7 7 7 7 7 7 7 7 7 7 7 7 7 7 7 7 7 7
5 5 5 5 6 6 6 6 6 6 6 6 6 6 6 6 6 5 6 6 6 6 6 6 6 7 7 7 7 7 7 7 7 7 7 7 6 6 6 7 7 7 7
5 5 5 5 5 5 5 5 5 5 6 6 5 5 5 5 6 5 5 5 5 6 6 6 6 6 6 6 6 6 6 6 6 6 6 6 6 6 6 6 6 6 6
4 4 4 4 4 4 5 5 5 5 5 5 5 5 5 5 5 5 5 5 5 5 5 5 6 6 6 6 6 6 6 6 6 6 6 6 6 6 6 6 6 6 6
3 3 3 4 4 4 4 4 4 4 4 4 4 4 5 5 5 5 5 4 4 4 4 5 5 5 5 5 5 5 5 5 5 5 5 5 5 5 5 6 6 6 6
2 2 3 3 3 3 3 3 3 4 3 4 4 4 4 4 4 4 4 4 3 3 3 4 4 4 4 4 5 5 5 5 5 5 5 5 5 5 5 5 5 5 5
1 2 2 2 2 2 2 3 3 3 3 3 3 3 3 3 3 3 3 4 3 3 2 3 3 4 4 4 4 4 4 4 4 4 4 5 4 5 4 5 5 4 4
1 1 1 1 1 1 1 2 2 2 2 2 2 2 3 3 3 3 3 3 3 3 2 3 3 3 3 3 3 4 4 4 4 4 4 4 4 4 4 4 4 4 4
0 0 0 0 1 1 1 1 1 1 1 2 2 2 2 2 2 2 2 2 2 2 2 2 2 2 2 3 3 3 3 3 3 3 3 3 3 3 3 3 3 3 3
-1 -0 -0 -0 -0 -0 0 0 1 1 1 1 1 1 1 1 1 1 1 1 2 2 2 2 2 2 2 2 2 2 2 2 2 2 2 2 2 3 3 3 3 3 3
-1 -1 -1 -1 -1 -1 -1 -0 -0 -0 0 0 0 0 1 1 1 1 1 1 1 1 1 1 1 1 1 1 1 1 1 2 2 2 2 2 2 2 2 2 2 2 2
-2 -2 -2 -2 -2 -2 -2 -1 -1 -1 -1 -1 -0 -0 -0 0 0 0 0 0 0 0 0 0 0 0 0 0 0 1 1 1 1 1 1 1 1 1 2 2 2 2 2
-3 -3 -3 -2 -2 -2 -2 -2 -2 -2 -2 -1 -1 -1 -1 -0 -0 -0 -0 -0 -0 -0 -0 -0 -1 -1 -1 -0 -0 0 -0 0 0 0 0 0 1 1 1 1 1 1 1
-3 -3 -3 -3 -3 -3 -3 -3 -3 -2 -2 -2 -2 -2 -1 -1 -1 -1 -1 -1 -1 -1 -1 -1 -1 -1 -1 -1 -1 -1 -1 -1 -1 -1 -1 -0 -0 -0 0 0 0 0 -0
-4 -4 -4 -4 -4 -4 -3 -3 -3 -3 -3 -3 -3 -2 -2 -2 -2 -2 -2 -2 -2 -2 -1 -1 -1 -1 -1 -1 -1 -1 -1 -1 -1 -1 -1 -1 -1 -1 -1 -1 -1 -1 -1
-5 -5 -5 -5 -4 -4 -4 -4 -4 -4 -4 -4 -3 -3 -3 -3 -3 -3 -3 -3 -2 -2 -2 -2 -2 -2 -2 -2 -2 -1 -1 -2 -2 -2 -2 -2 -2 -2 -2 -1 -2 -2 -2
-6 -6 -6 -5 -5 -5 -5 -5 -5 -5 -4 -4 -4 -4 -4 -3 -3 -3 -3 -3 -3 -3 -3 -3 -3 -3 -3 -2 -2 -3 -3 -3 -3 -3 -3 -3 -3 -3 -2 -2 -2 -2 -2
-7 -6 -6 -6 -6 -6 -5 -5 -6 -5 -5 -5 -5 -5 -4 -4 -4 -4 -4 -4 -4 -4 -4 -4 -4 -3 -3 -3 -3 -3 -3 -3 -3 -3 -3 -3 -3 -4 -4 -3 -3 -3 -3
Wind_Speed
2 2 2 3 3 4 4 3 3 4 5 6 7 6 6 8 9 9 8 10 10 10 10 11 11 11 12 12 13 13 13 13 13 13 14 14 13 12 11 11 11 12 12
2 2 2 2 2 3 3 4 5 4 4 6 6 6 7 7 8 8 8 8 9 10 10 10 10 11 11 12 12 12 12 12 12 12 12 12 13 12 12 11 11 11 11
2 2 2 2 2 2 4 4 5 5 4 5 5 6 7 7 7 8 8 7 7 8 9 9 10 10 11 11 11 11 12 12 12 11 11 11 11 12 11 12 11 11 11
2 2 2 2 2 3 3 3 3 3 3 4 3 4 5 6 6 7 7 7 7 6 7 9 9 9 10 10 10 10 11 11 10 10 10 10 10 11 11 11 10 10 10
1 2 2 2 3 3 3 3 3 4 4 4 4 3 4 4 4 5 5 6 6 6 6 6 8 8 8 8 9 9 9 10 9 9 9 9 9 9 9 9 9 9 9
1 2 2 2 3 3 2 3 3 4 3 4 4 4 3 3 4 4 4 5 5 6 6 6 6 6 7 7 7 7 8 9 9 8 8 7 7 7 7 7 7 8 8
1 1 1 2 2 3 3 4 4 5 3 3 3 3 2 2 2 3 3 4 5 5 6 6 6 6 6 6 6 6 7 7 8 8 7 6 6 6 6 6 6 6 6
1 1 1 1 2 3 4 4 4 3 2 2 3 3 2 0 0 1 1 2 3 5 6 5 6 6 6 6 5 6 6 6 7 7 6 6 5 5 4 4 4 4 5
1 1 0 1 1 3 4 5 5 5 4 2 2 3 3 3 2 0 0 1 2 3 3 4 5 6 6 6 5 5 6 6 6 5 5 5 4 4 3 3 3 3 2
0 1 0 0 1 2 4 5 4 4 5 4 3 1 1 3 3 2 1 1 1 2 2 3 3 4 6 6 6 6 6 6 5 5 4 4 4 3 3 2 2 2 3
0 0 1 1 1 1 3 4 4 4 4 4 3 2 1 1 1 3 3 2 1 1 2 3 3 4 5 6 6 6 6 5 5 4 4 3 3 2 2 2 1 1 1
0 0 1 1 0 0 2 2 3 5 5 4 4 3 3 3 3 2 3 4 3 2 2 3 3 4 5 6 6 7 7 6 5 4 3 3 3 3 2 2 1 1 1
1 1 1 0 0 1 1 2 2 3 5 6 5 4 4 3 3 2 3 3 2 1 2 2 3 4 5 5 6 7 7 7 6 5 4 4 3 3 3 2 2 1 1
2 2 2 1 2 2 2 2 2 2 3 5 6 5 4 3 3 3 3 4 3 1 2 3 2 4 5 5 6 7 7 7 7 6 5 4 3 3 3 3 3 3 2
2 2 2 2 2 2 2 1 2 3 3 4 4 5 4 4 3 3 3 5 5 4 4 3 2 3 5 5 6 7 7 7 7 7 6 5 5 4 4 4 4 3 3
1 2 2 2 2 2 2 2 2 3 3 4 4 5 5 4 3 3 4 4 3 4 4 3 3 2 5 5 7 6 7 8 8 8 7 6 6 5 5 5 5 4 4
1 2 2 2 2 3 3 3 2 3 4 4 4 6 6 5 4 4 4 4 4 3 4 3 2 2 3 4 5 6 6 7 7 8 8 8 7 7 6 6 6 5 5
1 2 2 2 3 3 3 3 3 3 4 4 5 5 6 5 6 5 5 5 4 4 5 5 3 3 3 4 4 5 5 5 6 8 9 8 8 8 8 7 7 6 5
1 1 1 2 3 3 3 3 3 4 4 5 5 5 6 6 6 5 5 5 4 4 4 4 4 3 2 3 3 3 3 3 4 6 7 8 8 8 8 8 7 6 6
1 1 1 2 2 2 3 3 3 3 4 4 4 5 5 7 7 7 6 6 5 5 5 4 4 4 3 2 3 4 3 3 3 4 5 6 7 7 8 8 8 7 7
2 2 1 2 2 2 3 3 3 4 4 4 4 5 5 5 7 7 6 6 6 6 5 5 5 4 4 4 4 3 4 2 2 3 3 4 4 5 6 6 6 7 7
3 2 2 2 2 3 4 4 4 3 4 4 5 5 5 6 7 9 9 9 9 9 8 7 6 7 7 5 4 4 4 3 3 3 3 3 4 3 4 6 7 6 6
3 2 3 2 3 3 4 5 5 4 4 4 4 4 4 5 6 5 7 8 8 9 10 9 8 9 7 7 7 6 6 5 4 3 3 3 3 3 4 6 7 7 7
3 3 3 3 3 4 5 5 6 4 4 4 4 5 5 5 5 5 5 5 5 6 7 7 7 7 7 7 7 6 6 3 1 2 3 3 3 3 3 5 7 7 7
4 4 4 4 4 4 5 6 6 4 4 4 5 5 5 5 6 7 6 5 5 4 5 7 7 7 7 8 8 4 5 4 3 3 2 2 2 2 2 3 6 7 8
4 4 4 4 4 5 6 6 6 3 4 4 3 4 6 6 8 8 6 6 6 5 3 3 3 4 5 6 8 7 6 6 3 3 3 3 2 1 2 2 3 4 6
Wind_Direction
68 76 104 108 105 103 108 114 103 95 83 90 93 88 77 77 83 86 86 86 94 104 107 106 104 106 108 107 104 102 101 100 98 95 92 89 88 86 84 84 83 81 80
65 84 93 102 106 121 129 123 113 98 87 87 88 85 81 77 81 86 90 88 89 99 104 104 106 111 112 111 107 104 104 103 101 99 96 93 89 86 84 84 83 83 83
70 91 105 98 97 111 121 119 113 104 101 91 90 85 81 79 83 88 91 89 89 89 100 103 102 107 113 114 112 107 105 104 103 101 99 97 94 89 85 83 80 81 83
88 95 115 113 108 110 111 120 127 121 114 103 96 90 82 80 85 90 94 98 96 93 94 98 100 104 109 112 113 114 113 109 106 104 100 97 96 93 89 83 79 80 79
102 95 114 117 129 117 110 122 130 135 130 117 104 100 89 83 82 92 92 100 105 104 105 104 101 98 105 110 112 117 121 118 113 110 105 100 99 96 92 85 83 83 80
106 104 110 132 135 130 134 134 132 124 129 128 109 93 89 86 79 79 89 99 105 111 112 111 111 108 108 108 108 114 124 123 122 118 113 107 103 100 95 87 86 87 81
56 87 91 129 136 147 152 144 138 130 123 129 110 92 76 82 88 77 76 92 98 107 110 109 114 116 118 120 114 115 123 128 128 125 121 115 108 100 95 90 89 91 84
43 64 91 135 164 154 156 156 142 135 136 143 136 136 151 127 352 116 103 109 106 110 107 109 115 117 118 117 122 123 124 129 131 130 128 124 115 107 104 96 85 89 86
79 86 90 160 180 170 174 173 163 149 160 176 148 146 156 184 168 172 134 119 122 115 116 122 125 134 134 129 127 132 135 138 138 138 138 136 131 120 109 101 82 69 76
41 108 98 185 189 178 179 183 174 162 158 174 186 184 155 137 152 172 229 209 142 147 136 128 129 139 147 145 137 134 139 148 150 149 146 149 151 148 145 132 105 64 44
48 90 142 144 167 175 180 179 175 168 170 173 177 173 162 119 151 158 181 204 233 222 167 148 151 154 154 152 147 150 147 145 151 160 169 172 172 175 176 168 155 98 30
181 55 167 163 184 176 171 178 181 179 178 179 181 173 165 167 182 167 174 187 205 232 217 171 170 170 164 165 165 160 165 168 167 165 172 189 196 197 209 222 232 255 305
214 220 199 194 208 228 205 167 170 188 186 185 191 190 187 190 176 172 163 175 194 221 201 204 185 184 184 176 180 172 179 182 182 184 189 195 199 213 221 236 239 256 282
208 206 201 207 222 221 217 190 174 194 198 197 197 193 195 199 188 181 174 167 177 217 214 215 200 188 187 183 194 182 189 194 197 198 201 206 212 224 236 239 238 247 261
198 192 195 200 209 213 210 206 196 198 203 204 204 201 200 199 194 196 186 177 176 195 220 213 203 196 191 196 201 192 195 203 206 209 213 217 221 224 227 243 246 247 256
198 192 194 201 206 208 210 208 203 204 204 208 205 206 207 205 198 196 196 195 194 192 211 210 211 206 191 204 208 201 203 204 208 214 216 218 222 223 228 238 244 244 248
227 210 202 202 210 215 211 205 213 210 211 216 215 208 209 202 200 202 200 199 202 193 213 232 220 194 184 193 204 202 207 206 211 216 219 221 221 222 226 231 234 237 244
258 236 217 207 218 224 218 212 216 217 216 219 220 212 212 206 202 200 200 205 205 203 202 211 211 201 210 199 190 189 202 207 213 215 218 223 224 226 228 229 229 233 241
276 259 228 217 222 227 228 226 220 222 221 224 224 221 215 204 208 203 201 206 206 206 200 197 206 202 209 192 188 194 191 197 213 213 217 221 227 231 231 230 228 233 239
279 263 243 236 234 235 237 234 227 228 226 224 223 227 221 206 205 204 208 206 202 198 192 191 191 193 200 187 183 189 197 205 215 218 218 228 229 231 232 232 231 230 232
289 274 258 246 239 238 237 232 230 232 228 224 227 227 224 213 210 208 209 203 201 198 193 195 196 196 198 183 202 196 199 197 229 207 190 224 226 231 237 236 233 233 230
292 288 275 261 251 250 258 251 239 239 239 230 232 233 225 218 215 218 216 210 205 204 202 204 210 208 210 202 197 195 186 188 232 211 197 232 215 219 233 240 233 235 236
293 284 276 266 263 265 268 263 253 246 245 239 234 232 232 230 220 218 221 216 217 218 214 208 206 212 208 200 192 198 197 205 226 201 192 235 213 227 230 235 233 232 239
298 287 282 274 270 274 275 273 267 249 244 241 237 230 227 230 225 211 207 213 220 225 220 217 212 210 212 198 200 205 194 189 174 202 197 229 223 230 233 233 233 237 243
293 286 280 270 266 273 272 268 268 259 252 248 240 232 224 222 229 218 209 212 220 231 229 218 216 210 209 206 199 182 177 187 225 231 213 210 222 238 234 232 231 235 241
286 283 281 272 264 266 269 267 262 254 256 257 245 234 231 228 228 221 212 205 211 216 209 212 211 212 205 203 205 205 196 199 215 226 206 191 196 186 242 241 222 234 240
Height
1523 1525 1526 1528 1529 1531 1532 1534 1536 1537 1539 1541 1543 1545 1547 1548 1550 1551 1552 1554 1556 1557 1559 1560 1561 1562 1563 1564 1565 1565 1566 1567 1567 1568 1569 1569 1570 1571 1571 1571 1571 1572 1572
1521 1522 1523 1525 1527 1529 1530 1532 1534 1535 1537 1539 1541 1543 1545 1547 1548 1550 1552 1553 1555 1556 1558 1559 1560 1562 1563 1563 1564 1565 1566 1567 1567 1568 1569 1569 1570 1571 1571 1571 1572 1572 1572
1519 1520 1521 1523 1525 1526 1528 1530 1531 1533 1535 1537 1539 1541 1543 1545 1547 1549 1550 1552 1554 1555 1557 1558 1559 1561 1562 1563 1564 1564 1565 1566 1567 1568 1568 1569 1570 1570 1571 1571 1572 1572 1572
1516 1517 1518 1520 1522 1524 1525 1527 1528 1530 1532 1534 1536 1539 1541 1543 1545 1547 1549 1550 1552 1553 1555 1557 1558 1560 1561 1562 1563 1563 1564 1565 1566 1567 1568 1569 1569 1570 1571 1571 1571 1572 1572
1513 1514 1516 1517 1519 1521 1522 1524 1526 1528 1529 1531 1534 1537 1539 1541 1543 1545 1547 1549 1550 1552 1553 1555 1556 1558 1559 1561 1562 1563 1563 1564 1565 1566 1567 1568 1569 1569 1570 1571 1571 1571 1571
1509 1511 1513 1514 1515 1517 1519 1521 1523 1525 1527 1529 1531 1534 1536 1538 1541 1542 1544 1546 1548 1550 1551 1553 1554 1556 1558 1559 1560 1562 1562 1563 1564 1565 1566 1567 1568 1569 1569 1570 1570 1570 1570
1506 1508 1509 1511 1512 1513 1515 1517 1520 1521 1524 1526 1529 1531 1534 1536 1538 1540 1542 1543 1545 1547 1549 1550 1552 1554 1555 1557 1558 1560 1561 1562 1563 1564 1565 1566 1566 1567 1568 1568 1569 1569 1570
1502 1504 1506 1507 1508 1510 1512 1514 1516 1517 1520 1523 1526 1528 1530 1534 1534 1537 1539 1540 1542 1544 1546 1547 1549 1551 1553 1554 1556 1557 1559 1560 1561 1562 1563 1564 1565 1565 1566 1567 1567 1568 1568
1499 1500 1502 1504 1505 1506 1508 1509 1511 1513 1516 1519 1522 1525 1526 1527 1530 1533 1535 1537 1539 1540 1542 1544 1546 1548 1550 1552 1553 1555 1556 1557 1559 1560 1561 1562 1563 1564 1564 1565 1565 1565 1566
1495 1496 1498 1499 1501 1503 1504 1506 1507 1509 1512 1515 1518 1520 1522 1523 1526 1528 1531 1533 1535 1537 1538 1540 1542 1545 1547 1548 1550 1552 1553 1555 1556 1557 1558 1559 1560 1561 1562 1562 1563 1563 1564
1491 1493 1494 1496 1497 1498 1500 1502 1503 1505 1508 1510 1512 1514 1517 1520 1522 1523 1525 1528 1531 1533 1535 1537 1539 1541 1543 1545 1546 1548 1550 1551 1553 1554 1555 1556 1557 1558 1559 1560 1560 1561 1561
1487 1489 1490 1491 1493 1494 1496 1498 1499 1501 1503 1505 1508 1510 1512 1515 1517 1519 1520 1523 1526 1528 1531 1533 1535 1537 1539 1541 1542 1544 1546 1548 1549 1551 1552 1553 1554 1555 1556 1556 1557 1558 1558
1483 1484 1485 1486 1488 1490 1491 1493 1495 1496 1498 1501 1503 1505 1508 1511 1513 1515 1516 1518 1521 1524 1526 1528 1530 1532 1535 1536 1538 1540 1542 1543 1545 1546 1548 1549 1550 1551 1552 1553 1553 1554 1555
1479 1481 1481 1483 1484 1485 1487 1488 1490 1492 1494 1496 1498 1500 1503 1506 1508 1510 1512 1514 1516 1519 1521 1523 1525 1527 1530 1532 1533 1535 1537 1539 1540 1542 1543 1544 1546 1547 1548 1549 1550 1550 1551
1476 1477 1478 1479 1480 1481 1483 1484 1485 1487 1490 1492 1494 1496 1499 1501 1503 1506 1508 1510 1512 1512 1515 1517 1520 1522 1524 1526 1528 1530 1532 1534 1535 1537 1539 1540 1541 1543 1544 1545 1546 1546 1547
1472 1473 1474 1475 1476 1477 1478 1480 1481 1483 1485 1486 1489 1492 1494 1496 1498 1500 1502 1504 1506 1508 1509 1511 1514 1517 1519 1522 1523 1525 1527 1529 1530 1532 1534 1535 1537 1538 1539 1540 1541 1542 1543
1469 1470 1470 1471 1472 1473 1474 1475 1477 1479 1480 1482 1484 1486 1487 1490 1492 1495 1497 1499 1501 1503 1504 1506 1509 1511 1514 1516 1517 1519 1521 1523 1525 1527 1529 1531 1532 1533 1535 1536 1537 1537 1538
1465 1466 1466 1467 1468 1469 1470 1470 1472 1473 1475 1477 1479 1480 1482 1484 1486 1489 1491 1493 1495 1497 1499 1500 1503 1505 1508 1510 1512 1513 1515 1518 1520 1522 1524 1525 1527 1528 1530 1531 1532 1533 1533
1461 1462 1462 1463 1463 1464 1465 1466 1467 1468 1470 1472 1473 1475 1477 1478 1480 1482 1485 1487 1489 1492 1494 1495 1496 1499 1502 1504 1506 1508 1510 1512 1514 1516 1518 1520 1522 1523 1525 1526 1527 1527 1528
1456 1457 1458 1459 1459 1460 1461 1462 1463 1464 1465 1466 1468 1469 1471 1472 1475 1477 1479 1481 1484 1486 1488 1490 1491 1493 1496 1498 1500 1501 1503 1506 1508 1510 1512 1514 1516 1518 1519 1520 1521 1522 1523
1453 1453 1453 1454 1454 1455 1456 1458 1459 1459 1460 1461 1463 1464 1465 1467 1469 1471 1473 1475 1478 1479 1482 1483 1485 1487 1489 1492 1494 1495 1497 1499 1502 1504 1506 1508 1510 1511 1513 1514 1515 1516 1517
1449 1449 1449 1450 1450 1451 1452 1453 1454 1455 1455 1456 1457 1458 1460 1462 1463 1465 1467 1469 1472 1473 1475 1477 1478 1480 1482 1485 1488 1490 1491 1493 1495 1498 1500 1502 1504 1505 1506 1508 1509 1511 1511
1444 1444 1445 1445 1445 1446 1447 1448 1449 1450 1450 1451 1452 1453 1454 1455 1457 1460 1462 1464 1465 1467 1470 1471 1472 1474 1476 1479 1482 1484 1486 1487 1489 1492 1494 1494 1497 1498 1500 1502 1504 1505 1506
1441 1441 1441 1441 1441 1441 1442 1443 1444 1445 1445 1446 1446 1447 1448 1449 1452 1454 1456 1457 1459 1461 1463 1465 1467 1469 1472 1474 1477 1479 1480 1482 1484 1486 1489 1489 1490 1492 1494 1496 1497 1499 1500
1437 1437 1437 1436 1436 1436 1437 1438 1439 1439 1440 1440 1441 1442 1443 1444 1446 1449 1450 1452 1453 1455 1458 1460 1462 1464 1466 1469 1471 1473 1474 1476 1477 1479 1482 1483 1484 1486 1488 1490 1492 1493 1494
1433 1433 1432 1432 1432 1432 1433 1433 1434 1434 1435 1435 1436 1436 1438 1440 1441 1443 1445 1446 1447 1449 1452 1454 1456 1458 1460 1462 1465 1467 1469 1470 1470 1473 1475 1478 1479 1481 1482 1483 1485 1487 1488